Year,Month,Day,Hour,Minute,Value (Times are PST for temperature in C)
2015,08,17,00,00,17.80
2015,08,17,00,01,17.70
2015,08,17,00,02,17.60
2015,08,17,00,03,17.50
2015,08,17,00,04,17.40
2015,08,17,00,05,17.40
2015,08,17,00,06,17.30
2015,08,17,00,07,17.30
2015,08,17,00,08,17.20
2015,08,17,00,09,17.20
2015,08,17,00,10,17.20
2015,08,17,00,11,17.20
2015,08,17,00,12,17.20
2015,08,17,00,13,17.20
2015,08,17,00,14,17.20
2015,08,17,00,15,17.20
2015,08,17,00,16,17.10
2015,08,17,00,17,17.10
2015,08,17,00,18,17.10
2015,08,17,00,19,17.10
2015,08,17,00,20,17.00
2015,08,17,00,21,17.00
2015,08,17,00,22,16.90
2015,08,17,00,23,16.90
2015,08,17,00,24,16.90
2015,08,17,00,25,16.80
2015,08,17,00,26,16.70
2015,08,17,00,27,16.70
2015,08,17,00,28,16.70
2015,08,17,00,29,16.60
2015,08,17,00,30,16.60
2015,08,17,00,31,16.50
2015,08,17,00,32,16.50
2015,08,17,00,33,16.40
2015,08,17,00,34,16.40
2015,08,17,00,35,16.30
2015,08,17,00,36,16.30
2015,08,17,00,37,16.30
2015,08,17,00,38,16.30
2015,08,17,00,39,16.20
2015,08,17,00,40,16.20
2015,08,17,00,41,16.20
2015,08,17,00,42,16.10
2015,08,17,00,43,16.10
2015,08,17,00,44,16.00
2015,08,17,00,45,15.90
2015,08,17,00,46,15.80
2015,08,17,00,47,15.80
2015,08,17,00,48,15.70
2015,08,17,00,49,15.60
2015,08,17,00,50,15.50
2015,08,17,00,51,15.40
2015,08,17,00,52,15.30
2015,08,17,00,53,15.30
2015,08,17,00,54,15.20
2015,08,17,00,55,15.20
2015,08,17,00,56,15.10
2015,08,17,00,57,15.10
2015,08,17,00,58,15.00
2015,08,17,00,59,15.00
2015,08,17,01,00,15.00
2015,08,17,01,01,15.00
2015,08,17,01,02,14.90
2015,08,17,01,03,14.70
2015,08,17,01,04,14.60
2015,08,17,01,05,14.50
2015,08,17,01,06,14.40
2015,08,17,01,07,14.30
2015,08,17,01,08,14.30
2015,08,17,01,09,14.20
2015,08,17,01,10,14.20
2015,08,17,01,11,14.20
2015,08,17,01,12,14.10
2015,08,17,01,13,14.10
2015,08,17,01,14,14.10
2015,08,17,01,15,14.10
2015,08,17,01,16,14.20
2015,08,17,01,17,14.20
2015,08,17,01,18,14.30
2015,08,17,01,19,14.30
2015,08,17,01,20,14.40
2015,08,17,01,21,14.50
2015,08,17,01,22,14.60
2015,08,17,01,23,14.60
2015,08,17,01,24,14.70
2015,08,17,01,25,14.80
2015,08,17,01,26,14.80
2015,08,17,01,27,14.90
2015,08,17,01,28,15.00
2015,08,17,01,29,15.00
2015,08,17,01,30,15.00
2015,08,17,01,31,15.00
2015,08,17,01,32,15.10
2015,08,17,01,33,15.20
2015,08,17,01,34,15.20
2015,08,17,01,35,15.30
2015,08,17,01,36,15.30
2015,08,17,01,37,15.30
2015,08,17,01,38,15.30
2015,08,17,01,39,15.30
2015,08,17,01,40,15.30
2015,08,17,01,41,15.20
2015,08,17,01,42,15.10
2015,08,17,01,43,15.00
2015,08,17,01,44,15.00
2015,08,17,01,45,15.00
2015,08,17,01,46,15.00
2015,08,17,01,47,15.00
2015,08,17,01,48,15.00
2015,08,17,01,49,15.00
2015,08,17,01,50,15.00
2015,08,17,01,51,15.00
2015,08,17,01,52,15.00
2015,08,17,01,53,15.10
2015,08,17,01,54,15.20
2015,08,17,01,55,15.20
2015,08,17,01,56,15.20
2015,08,17,01,57,15.20
2015,08,17,01,58,15.20
2015,08,17,01,59,15.10
2015,08,17,02,00,15.00
2015,08,17,02,01,15.00
2015,08,17,02,02,15.00
2015,08,17,02,03,15.00
2015,08,17,02,04,15.00
2015,08,17,02,05,14.90
2015,08,17,02,06,14.80
2015,08,17,02,07,14.80
2015,08,17,02,08,14.70
2015,08,17,02,09,14.70
2015,08,17,02,10,14.60
2015,08,17,02,11,14.50
2015,08,17,02,12,14.40
2015,08,17,02,13,14.40
2015,08,17,02,14,14.40
2015,08,17,02,15,14.30
2015,08,17,02,16,14.30
2015,08,17,02,17,14.30
2015,08,17,02,18,14.30
2015,08,17,02,19,14.30
2015,08,17,02,20,14.30
2015,08,17,02,21,14.30
2015,08,17,02,22,14.30
2015,08,17,02,23,14.30
2015,08,17,02,24,14.40
2015,08,17,02,25,14.40
2015,08,17,02,26,14.50
2015,08,17,02,27,14.50
2015,08,17,02,28,14.60
2015,08,17,02,29,14.60
2015,08,17,02,30,14.60
2015,08,17,02,31,14.60
2015,08,17,02,32,14.60
2015,08,17,02,33,14.60
2015,08,17,02,34,14.60
2015,08,17,02,35,14.70
2015,08,17,02,36,14.70
2015,08,17,02,37,14.80
2015,08,17,02,38,14.90
2015,08,17,02,39,15.00
2015,08,17,02,40,15.00
2015,08,17,02,41,15.00
2015,08,17,02,42,15.00
2015,08,17,02,43,15.10
2015,08,17,02,44,15.10
2015,08,17,02,45,15.10
2015,08,17,02,46,15.00
2015,08,17,02,47,15.00
2015,08,17,02,48,15.00
2015,08,17,02,49,15.00
2015,08,17,02,50,14.90
2015,08,17,02,51,14.80
2015,08,17,02,52,14.70
2015,08,17,02,53,14.70
2015,08,17,02,54,14.60
2015,08,17,02,55,14.50
2015,08,17,02,56,14.50
2015,08,17,02,57,14.60
2015,08,17,02,58,14.80
2015,08,17,02,59,15.00
2015,08,17,03,00,15.00
2015,08,17,03,01,15.00
2015,08,17,03,02,15.00
2015,08,17,03,03,15.00
2015,08,17,03,04,15.00
2015,08,17,03,05,15.00
2015,08,17,03,06,15.00
2015,08,17,03,07,15.00
2015,08,17,03,08,15.00
2015,08,17,03,09,14.90
2015,08,17,03,10,14.90
2015,08,17,03,11,14.90
2015,08,17,03,12,14.80
2015,08,17,03,13,14.80
2015,08,17,03,14,14.80
2015,08,17,03,15,14.70
2015,08,17,03,16,14.70
2015,08,17,03,17,14.80
2015,08,17,03,18,14.80
2015,08,17,03,19,14.80
2015,08,17,03,20,14.80
2015,08,17,03,21,14.70
2015,08,17,03,22,14.60
2015,08,17,03,23,14.50
2015,08,17,03,24,14.40
2015,08,17,03,25,14.30
2015,08,17,03,26,14.20
2015,08,17,03,27,14.20
2015,08,17,03,28,14.10
2015,08,17,03,29,14.00
2015,08,17,03,30,14.00
2015,08,17,03,31,13.80
2015,08,17,03,32,13.80
2015,08,17,03,33,13.80
2015,08,17,03,34,13.80
2015,08,17,03,35,13.80
2015,08,17,03,36,13.80
2015,08,17,03,37,13.80
2015,08,17,03,38,13.80
2015,08,17,03,39,13.80
2015,08,17,03,40,13.80
2015,08,17,03,41,13.80
2015,08,17,03,42,13.80
2015,08,17,03,43,13.80
2015,08,17,03,44,13.80
2015,08,17,03,45,13.80
2015,08,17,03,46,13.70
2015,08,17,03,47,13.70
2015,08,17,03,48,13.60
2015,08,17,03,49,13.50
2015,08,17,03,50,13.40
2015,08,17,03,51,13.30
2015,08,17,03,52,13.30
2015,08,17,03,53,13.20
2015,08,17,03,54,13.10
2015,08,17,03,55,13.00
2015,08,17,03,56,13.00
2015,08,17,03,57,12.90
2015,08,17,03,58,12.90
2015,08,17,03,59,12.80
2015,08,17,04,00,12.80
2015,08,17,04,01,12.80
2015,08,17,04,02,12.70
2015,08,17,04,03,12.60
2015,08,17,04,04,12.60
2015,08,17,04,05,12.50
2015,08,17,04,06,12.40
2015,08,17,04,07,12.40
2015,08,17,04,08,12.40
2015,08,17,04,09,12.30
2015,08,17,04,10,12.30
2015,08,17,04,11,12.40
2015,08,17,04,12,12.40
2015,08,17,04,13,12.40
2015,08,17,04,14,12.40
2015,08,17,04,15,12.50
2015,08,17,04,16,12.50
2015,08,17,04,17,12.60
2015,08,17,04,18,12.60
2015,08,17,04,19,12.60
2015,08,17,04,20,12.70
2015,08,17,04,21,12.70
2015,08,17,04,22,12.80
2015,08,17,04,23,12.80
2015,08,17,04,24,12.90
2015,08,17,04,25,12.90
2015,08,17,04,26,13.00
2015,08,17,04,27,13.00
2015,08,17,04,28,13.10
2015,08,17,04,29,13.10
2015,08,17,04,30,13.20
2015,08,17,04,31,13.20
2015,08,17,04,32,13.20
2015,08,17,04,33,13.30
2015,08,17,04,34,13.30
2015,08,17,04,35,13.30
2015,08,17,04,36,13.40
2015,08,17,04,37,13.50
2015,08,17,04,38,13.60
2015,08,17,04,39,13.70
2015,08,17,04,40,13.80
2015,08,17,04,41,13.90
2015,08,17,04,42,14.10
2015,08,17,04,43,14.20
2015,08,17,04,44,14.30
2015,08,17,04,45,14.40
2015,08,17,04,46,14.50
2015,08,17,04,47,14.60
2015,08,17,04,48,14.70
2015,08,17,04,49,14.70
2015,08,17,04,50,14.80
2015,08,17,04,51,14.80
2015,08,17,04,52,15.00
2015,08,17,04,53,15.00
2015,08,17,04,54,15.00
2015,08,17,04,55,15.00
2015,08,17,04,56,15.00
2015,08,17,04,57,15.00
2015,08,17,04,58,15.00
2015,08,17,04,59,14.90
2015,08,17,05,00,14.80
2015,08,17,05,01,14.70
2015,08,17,05,02,14.70
2015,08,17,05,03,14.70
2015,08,17,05,04,14.70
2015,08,17,05,05,14.60
2015,08,17,05,06,14.50
2015,08,17,05,07,14.50
2015,08,17,05,08,14.60
2015,08,17,05,09,14.60
2015,08,17,05,10,14.60
2015,08,17,05,11,14.70
2015,08,17,05,12,14.70
2015,08,17,05,13,14.80
2015,08,17,05,14,14.80
2015,08,17,05,15,14.80
2015,08,17,05,16,14.80
2015,08,17,05,17,14.90
2015,08,17,05,18,14.90
2015,08,17,05,19,14.90
2015,08,17,05,20,14.90
2015,08,17,05,21,14.90
2015,08,17,05,22,14.90
2015,08,17,05,23,14.90
2015,08,17,05,24,14.70
2015,08,17,05,25,14.60
2015,08,17,05,26,14.40
2015,08,17,05,27,14.30
2015,08,17,05,28,14.20
2015,08,17,05,29,14.00
2015,08,17,05,30,13.90
2015,08,17,05,31,13.80
2015,08,17,05,32,13.70
2015,08,17,05,33,13.60
2015,08,17,05,34,13.50
2015,08,17,05,35,13.50
2015,08,17,05,36,13.40
2015,08,17,05,37,13.30
2015,08,17,05,38,13.20
2015,08,17,05,39,13.10
2015,08,17,05,40,13.10
2015,08,17,05,41,13.00
2015,08,17,05,42,13.00
2015,08,17,05,43,13.00
2015,08,17,05,44,13.10
2015,08,17,05,45,13.10
2015,08,17,05,46,13.10
2015,08,17,05,47,13.10
2015,08,17,05,48,13.00
2015,08,17,05,49,13.00
2015,08,17,05,50,12.90
2015,08,17,05,51,12.90
2015,08,17,05,52,12.80
2015,08,17,05,53,12.80
2015,08,17,05,54,12.80
2015,08,17,05,55,12.80
2015,08,17,05,56,12.80
2015,08,17,05,57,12.70
2015,08,17,05,58,12.80
2015,08,17,05,59,12.80
2015,08,17,06,00,12.80
2015,08,17,06,01,12.80
2015,08,17,06,02,12.80
2015,08,17,06,03,12.90
2015,08,17,06,04,13.10
2015,08,17,06,05,13.20
2015,08,17,06,06,13.40
2015,08,17,06,07,13.50
2015,08,17,06,08,13.60
2015,08,17,06,09,13.70
2015,08,17,06,10,13.70
2015,08,17,06,11,13.70
2015,08,17,06,12,13.60
2015,08,17,06,13,13.60
2015,08,17,06,14,13.50
2015,08,17,06,15,13.50
2015,08,17,06,16,13.40
2015,08,17,06,17,13.30
2015,08,17,06,18,13.30
2015,08,17,06,19,13.30
2015,08,17,06,20,13.30
2015,08,17,06,21,13.30
2015,08,17,06,22,13.30
2015,08,17,06,23,13.30
2015,08,17,06,24,13.30
2015,08,17,06,25,13.30
2015,08,17,06,26,13.30
2015,08,17,06,27,13.30
2015,08,17,06,28,13.30
2015,08,17,06,29,13.40
2015,08,17,06,30,13.40
2015,08,17,06,31,13.50
2015,08,17,06,32,13.50
2015,08,17,06,33,13.60
2015,08,17,06,34,13.60
2015,08,17,06,35,13.60
2015,08,17,06,36,13.60
2015,08,17,06,37,13.50
2015,08,17,06,38,13.40
2015,08,17,06,39,13.40
2015,08,17,06,40,13.30
2015,08,17,06,41,13.30
2015,08,17,06,42,13.30
2015,08,17,06,43,13.30
2015,08,17,06,44,13.30
2015,08,17,06,45,13.30
2015,08,17,06,46,13.30
2015,08,17,06,47,13.20
2015,08,17,06,48,13.20
2015,08,17,06,49,13.20
2015,08,17,06,50,13.20
2015,08,17,06,51,13.20
2015,08,17,06,52,13.20
2015,08,17,06,53,13.20
2015,08,17,06,54,13.30
2015,08,17,06,55,13.40
2015,08,17,06,56,13.50
2015,08,17,06,57,13.60
2015,08,17,06,58,13.70
2015,08,17,06,59,13.80
2015,08,17,07,00,14.00
2015,08,17,07,01,14.10
2015,08,17,07,02,14.10
2015,08,17,07,03,14.20
2015,08,17,07,04,14.20
2015,08,17,07,05,14.20
2015,08,17,07,06,14.20
2015,08,17,07,07,14.20
2015,08,17,07,08,14.20
2015,08,17,07,09,14.20
2015,08,17,07,10,14.20
2015,08,17,07,11,14.20
2015,08,17,07,12,14.20
2015,08,17,07,13,14.20
2015,08,17,07,14,14.30
2015,08,17,07,15,14.30
2015,08,17,07,16,14.30
2015,08,17,07,17,14.30
2015,08,17,07,18,14.40
2015,08,17,07,19,14.50
2015,08,17,07,20,14.60
2015,08,17,07,21,14.70
2015,08,17,07,22,14.70
2015,08,17,07,23,14.70
2015,08,17,07,24,14.80
2015,08,17,07,25,14.90
2015,08,17,07,26,15.00
2015,08,17,07,27,15.00
2015,08,17,07,28,15.00
2015,08,17,07,29,15.10
2015,08,17,07,30,15.20
2015,08,17,07,31,15.20
2015,08,17,07,32,15.30
2015,08,17,07,33,15.30
2015,08,17,07,34,15.40
2015,08,17,07,35,15.50
2015,08,17,07,36,15.60
2015,08,17,07,37,15.60
2015,08,17,07,38,15.70
2015,08,17,07,39,15.80
2015,08,17,07,40,15.80
2015,08,17,07,41,15.80
2015,08,17,07,42,15.90
2015,08,17,07,43,16.00
2015,08,17,07,44,16.00
2015,08,17,07,45,16.10
2015,08,17,07,46,16.10
2015,08,17,07,47,16.20
2015,08,17,07,48,16.20
2015,08,17,07,49,16.20
2015,08,17,07,50,16.30
2015,08,17,07,51,16.30
2015,08,17,07,52,16.30
2015,08,17,07,53,16.40
2015,08,17,07,54,16.40
2015,08,17,07,55,16.40
2015,08,17,07,56,16.50
2015,08,17,07,57,16.50
2015,08,17,07,58,16.50
2015,08,17,07,59,16.60
2015,08,17,08,00,16.60
2015,08,17,08,01,16.60
2015,08,17,08,02,16.60
2015,08,17,08,03,16.70
2015,08,17,08,04,16.70
2015,08,17,08,05,16.70
2015,08,17,08,06,16.80
2015,08,17,08,07,16.80
2015,08,17,08,08,16.80
2015,08,17,08,09,16.90
2015,08,17,08,10,16.90
2015,08,17,08,11,17.00
2015,08,17,08,12,17.00
2015,08,17,08,13,17.00
2015,08,17,08,14,17.10
2015,08,17,08,15,17.10
2015,08,17,08,16,17.10
2015,08,17,08,17,17.10
2015,08,17,08,18,17.10
2015,08,17,08,19,17.10
2015,08,17,08,20,17.10
2015,08,17,08,21,17.10
2015,08,17,08,22,17.10
2015,08,17,08,23,17.10
2015,08,17,08,24,17.10
2015,08,17,08,25,17.20
2015,08,17,08,26,17.20
2015,08,17,08,27,17.20
2015,08,17,08,28,17.20
2015,08,17,08,29,17.20
2015,08,17,08,30,17.20
2015,08,17,08,31,17.20
2015,08,17,08,32,17.20
2015,08,17,08,33,17.20
2015,08,17,08,34,17.20
2015,08,17,08,35,17.30
2015,08,17,08,36,17.30
2015,08,17,08,37,17.30
2015,08,17,08,38,17.40
2015,08,17,08,39,17.40
2015,08,17,08,40,17.40
2015,08,17,08,41,17.40
2015,08,17,08,42,17.40
2015,08,17,08,43,17.40
2015,08,17,08,44,17.50
2015,08,17,08,45,17.50
2015,08,17,08,46,17.50
2015,08,17,08,47,17.50
2015,08,17,08,48,17.60
2015,08,17,08,49,17.50
2015,08,17,08,50,17.50
2015,08,17,08,51,17.50
2015,08,17,08,52,17.60
2015,08,17,08,53,17.60
2015,08,17,08,54,17.60
2015,08,17,08,55,17.50
2015,08,17,08,56,17.50
2015,08,17,08,57,17.50
2015,08,17,08,58,17.50
2015,08,17,08,59,17.50
2015,08,17,09,00,17.50
2015,08,17,09,01,17.60
2015,08,17,09,02,17.60
2015,08,17,09,03,17.60
2015,08,17,09,04,17.60
2015,08,17,09,05,17.70
2015,08,17,09,06,17.70
2015,08,17,09,07,17.70
2015,08,17,09,08,17.70
2015,08,17,09,09,17.70
2015,08,17,09,10,17.70
2015,08,17,09,11,17.70
2015,08,17,09,12,17.60
2015,08,17,09,13,17.60
2015,08,17,09,14,17.60
2015,08,17,09,15,17.70
2015,08,17,09,16,17.80
2015,08,17,09,17,17.80
2015,08,17,09,18,17.90
2015,08,17,09,19,17.90
2015,08,17,09,20,17.90
2015,08,17,09,21,17.90
2015,08,17,09,22,17.90
2015,08,17,09,23,17.90
2015,08,17,09,24,18.00
2015,08,17,09,25,18.10
2015,08,17,09,26,18.10
2015,08,17,09,27,18.20
2015,08,17,09,28,18.20
2015,08,17,09,29,18.20
2015,08,17,09,30,18.20
2015,08,17,09,31,18.30
2015,08,17,09,32,18.30
2015,08,17,09,33,18.30
2015,08,17,09,34,18.30
2015,08,17,09,35,18.30
2015,08,17,09,36,18.40
2015,08,17,09,37,18.50
2015,08,17,09,38,18.50
2015,08,17,09,39,18.60
2015,08,17,09,40,18.60
2015,08,17,09,41,18.60
2015,08,17,09,42,18.70
2015,08,17,09,43,18.80
2015,08,17,09,44,18.80
2015,08,17,09,45,18.90
2015,08,17,09,46,18.90
2015,08,17,09,47,18.90
2015,08,17,09,48,18.90
2015,08,17,09,49,18.90
2015,08,17,09,50,19.00
2015,08,17,09,51,19.00
2015,08,17,09,52,19.00
2015,08,17,09,53,18.90
2015,08,17,09,54,18.90
2015,08,17,09,55,18.90
2015,08,17,09,56,18.90
2015,08,17,09,57,18.90
2015,08,17,09,58,18.90
2015,08,17,09,59,18.90
2015,08,17,10,00,18.90
2015,08,17,10,01,18.90
2015,08,17,10,02,18.90
2015,08,17,10,03,18.90
2015,08,17,10,04,18.90
2015,08,17,10,05,18.90
2015,08,17,10,06,19.00
2015,08,17,10,07,19.10
2015,08,17,10,08,19.10
2015,08,17,10,09,19.20
2015,08,17,10,10,19.20
2015,08,17,10,11,19.20
2015,08,17,10,12,19.20
2015,08,17,10,13,19.10
2015,08,17,10,14,19.10
2015,08,17,10,15,19.10
2015,08,17,10,16,19.10
2015,08,17,10,17,19.10
2015,08,17,10,18,19.10
2015,08,17,10,19,19.10
2015,08,17,10,20,19.10
2015,08,17,10,21,19.20
2015,08,17,10,22,19.20
2015,08,17,10,23,19.20
2015,08,17,10,24,19.20
2015,08,17,10,25,19.30
2015,08,17,10,26,19.30
2015,08,17,10,27,19.30
2015,08,17,10,28,19.30
2015,08,17,10,29,19.40
2015,08,17,10,30,19.40
2015,08,17,10,31,19.50
2015,08,17,10,32,19.60
2015,08,17,10,33,19.70
2015,08,17,10,34,19.80
2015,08,17,10,35,19.90
2015,08,17,10,36,19.90
2015,08,17,10,37,19.90
2015,08,17,10,38,19.90
2015,08,17,10,39,20.00
2015,08,17,10,40,20.10
2015,08,17,10,41,20.10
2015,08,17,10,42,20.10
2015,08,17,10,43,20.00
2015,08,17,10,44,20.00
2015,08,17,10,45,19.90
2015,08,17,10,46,19.90
2015,08,17,10,47,19.90
2015,08,17,10,48,20.00
2015,08,17,10,49,19.90
2015,08,17,10,50,19.80
2015,08,17,10,51,19.60
2015,08,17,10,52,19.50
2015,08,17,10,53,19.50
2015,08,17,10,54,19.50
2015,08,17,10,55,19.60
2015,08,17,10,56,19.60
2015,08,17,10,57,19.60
2015,08,17,10,58,19.70
2015,08,17,10,59,19.80
2015,08,17,11,00,19.90
2015,08,17,11,01,20.00
2015,08,17,11,02,20.10
2015,08,17,11,03,20.10
2015,08,17,11,04,20.10
2015,08,17,11,05,20.20
2015,08,17,11,06,20.20
2015,08,17,11,07,20.30
2015,08,17,11,08,20.40
2015,08,17,11,09,20.40
2015,08,17,11,10,20.50
2015,08,17,11,11,20.50
2015,08,17,11,12,20.50
2015,08,17,11,13,20.40
2015,08,17,11,14,20.40
2015,08,17,11,15,20.40
2015,08,17,11,16,20.30
2015,08,17,11,17,20.30
2015,08,17,11,18,20.30
2015,08,17,11,19,20.30
2015,08,17,11,20,20.30
2015,08,17,11,21,20.30
2015,08,17,11,22,20.30
2015,08,17,11,23,20.30
2015,08,17,11,24,20.30
2015,08,17,11,25,20.30
2015,08,17,11,26,20.30
2015,08,17,11,27,20.40
2015,08,17,11,28,20.50
2015,08,17,11,29,20.50
2015,08,17,11,30,20.40
2015,08,17,11,31,20.30
2015,08,17,11,32,20.20
2015,08,17,11,33,20.20
2015,08,17,11,34,20.30
2015,08,17,11,35,20.20
2015,08,17,11,36,20.30
2015,08,17,11,37,20.30
2015,08,17,11,38,20.30
2015,08,17,11,39,20.30
2015,08,17,11,40,20.40
2015,08,17,11,41,20.50
2015,08,17,11,42,20.50
2015,08,17,11,43,20.50
2015,08,17,11,44,20.50
2015,08,17,11,45,20.60
2015,08,17,11,46,20.60
2015,08,17,11,47,20.60
2015,08,17,11,48,20.50
2015,08,17,11,49,20.60
2015,08,17,11,50,20.70
2015,08,17,11,51,20.70
2015,08,17,11,52,20.80
2015,08,17,11,53,20.90
2015,08,17,11,54,20.90
2015,08,17,11,55,21.00
2015,08,17,11,56,21.00
2015,08,17,11,57,21.00
2015,08,17,11,58,21.00
2015,08,17,11,59,20.90
2015,08,17,12,00,20.90
2015,08,17,12,01,20.70
2015,08,17,12,02,20.40
2015,08,17,12,03,20.30
2015,08,17,12,04,20.30
2015,08,17,12,05,20.40
2015,08,17,12,06,20.50
2015,08,17,12,07,20.60
2015,08,17,12,08,20.60
2015,08,17,12,09,20.50
2015,08,17,12,10,20.50
2015,08,17,12,11,20.50
2015,08,17,12,12,20.50
2015,08,17,12,13,20.40
2015,08,17,12,14,20.30
2015,08,17,12,15,20.30
2015,08,17,12,16,20.40
2015,08,17,12,17,20.50
2015,08,17,12,18,20.50
2015,08,17,12,19,20.50
2015,08,17,12,20,20.50
2015,08,17,12,21,20.40
2015,08,17,12,22,20.30
2015,08,17,12,23,20.40
2015,08,17,12,24,20.50
2015,08,17,12,25,20.50
2015,08,17,12,26,20.60
2015,08,17,12,27,20.60
2015,08,17,12,28,20.80
2015,08,17,12,29,20.80
2015,08,17,12,30,20.80
2015,08,17,12,31,20.70
2015,08,17,12,32,20.50
2015,08,17,12,33,20.40
2015,08,17,12,34,20.30
2015,08,17,12,35,20.20
2015,08,17,12,36,20.30
2015,08,17,12,37,20.30
2015,08,17,12,38,20.40
2015,08,17,12,39,20.40
2015,08,17,12,40,20.50
2015,08,17,12,41,20.50
2015,08,17,12,42,20.50
2015,08,17,12,43,20.40
2015,08,17,12,44,20.30
2015,08,17,12,45,20.30
2015,08,17,12,46,20.30
2015,08,17,12,47,20.40
2015,08,17,12,48,20.40
2015,08,17,12,49,20.40
2015,08,17,12,50,20.40
2015,08,17,12,51,20.30
2015,08,17,12,52,20.20
2015,08,17,12,53,20.20
2015,08,17,12,54,20.20
2015,08,17,12,55,20.40
2015,08,17,12,56,20.40
2015,08,17,12,57,20.60
2015,08,17,12,58,20.70
2015,08,17,12,59,20.70
2015,08,17,13,00,20.70
2015,08,17,13,01,20.70
2015,08,17,13,02,20.70
2015,08,17,13,03,20.70
2015,08,17,13,04,20.80
2015,08,17,13,05,20.80
2015,08,17,13,06,20.80
2015,08,17,13,07,20.70
2015,08,17,13,08,20.80
2015,08,17,13,09,20.80
2015,08,17,13,10,20.80
2015,08,17,13,11,20.80
2015,08,17,13,12,20.80
2015,08,17,13,13,20.80
2015,08,17,13,14,20.90
2015,08,17,13,15,20.90
2015,08,17,13,16,21.00
2015,08,17,13,17,21.10
2015,08,17,13,18,21.10
2015,08,17,13,19,21.20
2015,08,17,13,20,21.30
2015,08,17,13,21,21.20
2015,08,17,13,22,21.10
2015,08,17,13,23,21.00
2015,08,17,13,24,21.10
2015,08,17,13,25,21.20
2015,08,17,13,26,21.30
2015,08,17,13,27,21.40
2015,08,17,13,28,21.30
2015,08,17,13,29,21.40
2015,08,17,13,30,21.50
2015,08,17,13,31,21.60
2015,08,17,13,32,21.60
2015,08,17,13,33,21.60
2015,08,17,13,34,21.60
2015,08,17,13,35,21.70
2015,08,17,13,36,21.80
2015,08,17,13,37,22.00
2015,08,17,13,38,22.10
2015,08,17,13,39,22.10
2015,08,17,13,40,22.20
2015,08,17,13,41,22.20
2015,08,17,13,42,22.10
2015,08,17,13,43,22.20
2015,08,17,13,44,22.30
2015,08,17,13,45,22.30
2015,08,17,13,46,22.40
2015,08,17,13,47,22.50
2015,08,17,13,48,22.50
2015,08,17,13,49,22.60
2015,08,17,13,50,22.60
2015,08,17,13,51,22.50
2015,08,17,13,52,22.50
2015,08,17,13,53,22.40
2015,08,17,13,54,22.30
2015,08,17,13,55,22.40
2015,08,17,13,56,22.40
2015,08,17,13,57,22.50
2015,08,17,13,58,22.60
2015,08,17,13,59,22.70
2015,08,17,14,00,22.70
2015,08,17,14,01,22.70
2015,08,17,14,02,22.70
2015,08,17,14,03,22.70
2015,08,17,14,04,22.70
2015,08,17,14,05,22.90
2015,08,17,14,06,23.00
2015,08,17,14,07,23.20
2015,08,17,14,08,23.20
2015,08,17,14,09,23.10
2015,08,17,14,10,23.00
2015,08,17,14,11,22.80
2015,08,17,14,12,22.70
2015,08,17,14,13,22.60
2015,08,17,14,14,22.50
2015,08,17,14,15,22.60
2015,08,17,14,16,22.70
2015,08,17,14,17,22.80
2015,08,17,14,18,22.90
2015,08,17,14,19,23.00
2015,08,17,14,20,23.20
2015,08,17,14,21,23.30
2015,08,17,14,22,23.30
2015,08,17,14,23,23.20
2015,08,17,14,24,23.10
2015,08,17,14,25,23.10
2015,08,17,14,26,23.10
2015,08,17,14,27,23.10
2015,08,17,14,28,23.10
2015,08,17,14,29,23.10
2015,08,17,14,30,23.20
2015,08,17,14,31,23.20
2015,08,17,14,32,23.20
2015,08,17,14,33,23.20
2015,08,17,14,34,23.20
2015,08,17,14,35,23.20
2015,08,17,14,36,23.30
2015,08,17,14,37,23.30
2015,08,17,14,38,23.40
2015,08,17,14,39,23.30
2015,08,17,14,40,23.30
2015,08,17,14,41,23.40
2015,08,17,14,42,23.40
2015,08,17,14,43,23.40
2015,08,17,14,44,23.40
2015,08,17,14,45,23.40
2015,08,17,14,46,23.50
2015,08,17,14,47,23.60
2015,08,17,14,48,23.70
2015,08,17,14,49,23.70
2015,08,17,14,50,23.70
2015,08,17,14,51,23.60
2015,08,17,14,52,23.50
2015,08,17,14,53,23.50
2015,08,17,14,54,23.50
2015,08,17,14,55,23.60
2015,08,17,14,56,23.70
2015,08,17,14,57,23.80
2015,08,17,14,58,23.90
2015,08,17,14,59,23.90
2015,08,17,15,00,24.00
2015,08,17,15,01,24.00
2015,08,17,15,02,23.90
2015,08,17,15,03,23.80
2015,08,17,15,04,23.90
2015,08,17,15,05,24.00
2015,08,17,15,06,24.10
2015,08,17,15,07,24.20
2015,08,17,15,08,24.30
2015,08,17,15,09,24.20
2015,08,17,15,10,24.10
2015,08,17,15,11,24.00
2015,08,17,15,12,23.90
2015,08,17,15,13,23.80
2015,08,17,15,14,23.80
2015,08,17,15,15,23.80
2015,08,17,15,16,23.80
2015,08,17,15,17,23.80
2015,08,17,15,18,23.70
2015,08,17,15,19,23.70
2015,08,17,15,20,23.80
2015,08,17,15,21,23.80
2015,08,17,15,22,23.80
2015,08,17,15,23,23.80
2015,08,17,15,24,23.90
2015,08,17,15,25,24.00
2015,08,17,15,26,24.00
2015,08,17,15,27,24.00
2015,08,17,15,28,24.00
2015,08,17,15,29,24.00
2015,08,17,15,30,23.90
2015,08,17,15,31,23.70
2015,08,17,15,32,23.70
2015,08,17,15,33,23.50
2015,08,17,15,34,23.50
2015,08,17,15,35,23.50
2015,08,17,15,36,23.60
2015,08,17,15,37,23.60
2015,08,17,15,38,23.60
2015,08,17,15,39,23.70
2015,08,17,15,40,23.70
2015,08,17,15,41,23.70
2015,08,17,15,42,23.70
2015,08,17,15,43,23.70
2015,08,17,15,44,23.50
2015,08,17,15,45,23.50
2015,08,17,15,46,23.50
2015,08,17,15,47,23.50
2015,08,17,15,48,23.40
2015,08,17,15,49,23.40
2015,08,17,15,50,23.30
2015,08,17,15,51,23.30
2015,08,17,15,52,23.30
2015,08,17,15,53,23.20
2015,08,17,15,54,23.30
2015,08,17,15,55,23.40
2015,08,17,15,56,23.40
2015,08,17,15,57,23.40
2015,08,17,15,58,23.50
2015,08,17,15,59,23.50
2015,08,17,16,00,23.60
2015,08,17,16,01,23.70
2015,08,17,16,02,23.60
2015,08,17,16,03,23.60
2015,08,17,16,04,23.60
2015,08,17,16,05,23.70
2015,08,17,16,06,23.80
2015,08,17,16,07,23.70
2015,08,17,16,08,23.60
2015,08,17,16,09,23.60
2015,08,17,16,10,23.60
2015,08,17,16,11,23.70
2015,08,17,16,12,23.80
2015,08,17,16,13,23.90
2015,08,17,16,14,23.90
2015,08,17,16,15,24.00
2015,08,17,16,16,23.90
2015,08,17,16,17,23.80
2015,08,17,16,18,23.70
2015,08,17,16,19,23.70
2015,08,17,16,20,23.80
2015,08,17,16,21,23.90
2015,08,17,16,22,24.00
2015,08,17,16,23,24.10
2015,08,17,16,24,24.10
2015,08,17,16,25,24.20
2015,08,17,16,26,24.30
2015,08,17,16,27,24.40
2015,08,17,16,28,24.40
2015,08,17,16,29,24.40
2015,08,17,16,30,24.30
2015,08,17,16,31,24.30
2015,08,17,16,32,24.20
2015,08,17,16,33,24.30
2015,08,17,16,34,24.30
2015,08,17,16,35,24.30
2015,08,17,16,36,24.40
2015,08,17,16,37,24.40
2015,08,17,16,38,24.50
2015,08,17,16,39,24.60
2015,08,17,16,40,24.60
2015,08,17,16,41,24.60
2015,08,17,16,42,24.60
2015,08,17,16,43,24.60
2015,08,17,16,44,24.60
2015,08,17,16,45,24.60
2015,08,17,16,46,24.60
2015,08,17,16,47,24.60
2015,08,17,16,48,24.60
2015,08,17,16,49,24.60
2015,08,17,16,50,24.50
2015,08,17,16,51,24.50
2015,08,17,16,52,24.40
2015,08,17,16,53,24.40
2015,08,17,16,54,24.40
2015,08,17,16,55,24.50
2015,08,17,16,56,24.60
2015,08,17,16,57,24.70
2015,08,17,16,58,24.70
2015,08,17,16,59,24.80
2015,08,17,17,00,24.90
2015,08,17,17,01,25.00
2015,08,17,17,02,25.10
2015,08,17,17,03,25.20
2015,08,17,17,04,25.30
2015,08,17,17,05,25.30
2015,08,17,17,06,25.30
2015,08,17,17,07,25.30
2015,08,17,17,08,25.30
2015,08,17,17,09,25.30
2015,08,17,17,10,25.30
2015,08,17,17,11,25.20
2015,08,17,17,12,25.20
2015,08,17,17,13,25.20
2015,08,17,17,14,25.20
2015,08,17,17,15,25.20
2015,08,17,17,16,25.20
2015,08,17,17,17,25.30
2015,08,17,17,18,25.30
2015,08,17,17,19,25.30